Regional Weather Roundup
Issued by NWS Mobile, AL

Home | Current Version | Previous Version | Text Only | Print | Product List | Glossary On
Versions: 1 2 3 4 5 6 7 8 9 10 11 12 13 14 15 16 17 18 19 20 21 22 23 24 25 26 27 28 29 30 31 32 33 34 35 36 37 38 39 40 41 42 43 44 45 46 47 48 49 50
000
ASUS44 KMOB 261912
RWRMOB
REGIONAL WEATHER ROUNDUP
NATIONAL WEATHER SERVICE MOBILE AL
200 PM CDT SUN MAR 26 2017

NOTE: "FAIR" INDICATES FEW OR NO CLOUDS BELOW 12,000 FEET WITH NO
      SIGNIFICANT WEATHER AND/OR OBSTRUCTIONS TO VISIBILITY.

  * THESE STATIONS ARE PART OF THE UNIVERSITY OF SOUTH ALABAMA
    MESONET AND ARE NOT UNDER NWS OR FAA QUALITY CONTROL.

ALZ061>064-262000-
COASTAL ALABAMA

CITY           SKY/WX    TMP DP  RH WIND       PRES   REMARKS
MOBILE REG APT PTSUNNY   80  62  54 S14G20    30.05F
BROOKLEY FIELD MOSUNNY   77  70  79 SE14      30.07F
USA CAMPUS*      N/A     77  66  69 SE9       30.05F
DOG RIVER*       N/A     75  70  83 S9        30.83


CITY           SKY/WX    TMP DP  RH WIND       PRES   REMARKS
GULF SHORES    MOSUNNY   76  71  83 S12G17    30.07F

$$

ALZ051>060-262000-
INTERIOR SOUTHWEST AND SOUTH CENTRAL ALABAMA

CITY           SKY/WX    TMP DP  RH WIND       PRES   REMARKS
GREENVILLE     MOSUNNY   79  60  52 S13       30.05F
EVERGREEN      MOSUNNY   81  61  50 S10G21    30.06F
ATMORE*          N/A     77  64  65 S8        30.07F
ANDALUSIA/OPP  CLOUDY    79  62  56 MISG      30.07F
ANDALUSIA*       N/A     75  63  64 SW8       30.08F
FLORALA APT    PTSUNNY   78  63  59 SW10      30.09F
FLORALA*       NOT AVBL

$$

FLZ001>006-262000-
WESTERN FLORIDA PANHANDLE

CITY           SKY/WX    TMP DP  RH WIND       PRES   REMARKS
PENSACOLA      PTSUNNY   76  67  73 SE17      30.07F
NAS PENSACOLA  MOSUNNY   77  68  73 SE13      30.07F
MILTON         NOT AVBL
WHTNG S FIELD  NOT AVBL


CITY           SKY/WX    TMP DP  RH WIND       PRES   REMARKS
JAY*             N/A     77  63  61 SE7       30.06F
DUKE FIELD     MOSUNNY   77  65  65 S15       30.07F
CRESTVIEW      MOSUNNY   78  64  61 S12G22    30.09F
VALPARAISO     PTSUNNY   76  66  71 S12       30.09F
DESTIN         PTSUNNY   75  71  87 SE13      30.10F

$$

MSZ076-079-262000-
INTERIOR SOUTHEAST MISSISSIPPI

CITY           SKY/WX    TMP DP  RH WIND       PRES   REMARKS
LEAKESVILLE*     N/A     79  63  57 SW3       30.03
AGRICOLA*        N/A     81  64  57 CALM      30.03

$$

MARINE OBSERVATIONS

STATION/POSITION TIME  TEMP    WIND        PRES    WAVE
                       AIR SEA DIR/SP/G            HT/PER
                 (UTC) (F)     (DEG/KT/KT) (MB)    (FT/S)
PASCAGOULA       1848   73     160/ 10/ 12 1017.8F
PETIT BOIS ISLND 1848   73     150/  8/ 10 1018.7F
GRAND BAY        1730   72     160/  9     1019.0F
KATRINA CUT      1830          140/ 12     1018.0F
CEDAR POINT      1830   72     150/ 10     1018.3F
E DAUPHIN ISLAND 1800   70     120/ 13/ 15 1018.4F
MIDDLE BAY LIGHT 1830   71     140/ 12     1018.0F
USCG MOBILE BAY  1848   72 70  170/ 11/ 15 1018.5F
STATE DOCKS      1848   72 67              1018.0F
MEAHER PARK      1830   71     180/ 11     1017.6F
WEEKS BAY        1745   77                   N/A
FORT MORGAN      1848   72     130/ 10/ 12   N/A
12 S ORANGE BCH  1850   71 70  160/  8/  8 1018.4F   3/ 6
PENSACOLA BAY    1848   75 70  180/ 10/ 13 1018.8F
64 S DAUPHIN ISL 1850   73 74  150/  8/ 10 1018.4F   4/ 8
67 S FORT MORGAN 1830   72     160/  8     1018.3F

$$

SELECTED LOCATIONS ACROSS THE REGION

CITY           SKY/WX    TMP DP  RH WIND       PRES   REMARKS
NEW ORLEANS    MOSUNNY   81  67  62 S12       30.02F
GULFPORT       MOSUNNY   78  69  73 S12       30.04F
PASCAGOULA AP  MOSUNNY   80  63  55 S7        30.05F
PASCAGOULA*    NOT AVBL
HATTIESBURG    SUNNY     80  62  54 SW9       30.03F
LAUREL         PTSUNNY   79  63  57 S9        30.04F
MERIDIAN       MOSUNNY   78  63  59 SW12      30.02F
JACKSON        MOSUNNY   81  59  47 SW10      29.98F
MONTGOMERY     MOSUNNY   80  60  50 S13       30.06F
TROY           MOSUNNY   77  63  61 S8        30.09F
ASHFORD*         N/A     75  63  64 SW8       30.08F
DOTHAN         MOSUNNY   80  62  54 VRB7      30.10F
PANAMA CITY    CLOUDY    76  63  64 S15G21    30.10F

$$




USA.gov is the U.S. government's official web portal to all federal, state and local government web resources and services.